MDT,Max TemperatureF,Mean TemperatureF,Min TemperatureF,Max Dew PointF,MeanDew PointF,Min DewpointF,Max Humidity, Mean Humidity, Min Humidity, Max Sea Level PressureIn, Mean Sea Level PressureIn, Min Sea Level PressureIn, Max VisibilityMiles, Mean VisibilityMiles, Min VisibilityMiles, Max Wind SpeedMPH, Mean Wind SpeedMPH, Max Gust SpeedMPH,PrecipitationIn, CloudCover, Events, WindDirDegrees
2013-8-1,79,70,60,56,53,50,83,64,40,30.32,30.09,30.01,10,10,10,24,9,31,0.01,4,Rain,251
2013-8-2,82,70,57,55,52,48,84,57,31,30.00,29.96,29.89,10,10,10,21,11,29,0.00,1,,296
2013-8-3,86,70,57,57,50,43,78,49,24,30.03,29.97,29.92,10,10,10,20,8,22,0.00,0,,283
2013-8-4,86,72,59,58,53,48,90,59,28,30.36,30.03,29.96,10,10,10,20,9,28,0.00,1,Rain,75
2013-8-5,86,72,61,54,50,44,78,47,27,30.24,29.97,29.89,10,10,10,31,10,38,0.02,2,,278
2013-8-6,86,72,61,53,49,44,70,49,26,30.20,29.92,29.85,10,10,9,24,10,37,0.05,2,Rain,295
2013-8-7,81,67,55,53,49,46,87,55,31,29.96,29.91,29.84,10,10,10,22,10,28,0.00,1,,267
2013-8-8,80,66,53,51,46,38,83,54,24,30.01,29.92,29.87,10,10,10,23,11,32,0.00,0,,316
2013-8-9,81,64,51,53,47,40,90,59,25,30.35,30.08,30.01,10,10,6,13,7,39,0.26,3,Rain,89
2013-8-10,75,64,53,52,50,48,94,67,40,30.45,30.19,30.07,10,10,4,20,10,30,0.41,3,Rain,247
2013-8-11,73,64,55,55,51,46,83,64,40,30.18,30.10,30.03,10,10,10,14,9,,0.01,2,Rain,254
2013-8-12,73,65,57,57,55,53,90,75,55,30.17,30.08,30.00,10,10,6,18,8,18,0.17,4,Rain,233
2013-8-13,82,68,55,57,51,43,90,60,27,30.36,30.08,30.01,10,10,10,18,9,30,0.00,1,Rain,347
2013-8-14,80,68,57,57,52,44,94,69,33,30.38,30.13,30.00,10,10,10,32,10,40,0.03,4,Rain,118
2013-8-15,82,68,53,54,49,41,86,56,25,30.11,30.05,29.98,10,10,10,17,9,21,0.00,1,,234
2013-8-16,87,72,61,48,43,35,60,39,18,30.33,30.04,29.99,10,10,10,24,13,33,0.00,1,,238
2013-8-17,87,72,57,50,43,37,72,39,20,30.27,30.02,29.95,10,10,10,18,9,25,0.00,1,,230
2013-8-18,88,72,57,48,44,36,65,38,20,30.03,29.99,29.94,10,10,10,20,12,24,0.00,1,Rain,291
2013-8-19,87,72,59,57,49,42,83,53,22,30.26,30.01,29.90,10,10,2,17,8,24,0.29,3,Rain,282
2013-8-20,81,68,55,57,53,48,89,64,31,30.25,30.02,29.93,10,10,2,20,10,25,0.19,1,Rain,243
2013-8-21,82,70,57,55,49,45,78,50,28,30.05,30.00,29.95,10,10,10,15,8,20,0.00,0,,205
2013-8-22,82,70,57,47,41,33,64,38,18,30.06,30.01,29.95,10,10,10,18,10,24,0.00,1,,187
2013-8-23,77,68,59,53,46,36,75,51,32,30.05,30.01,29.97,10,10,10,15,7,22,0.08,1,Rain,179
2013-8-24,75,65,55,53,50,48,77,60,40,30.10,30.06,30.01,10,10,10,17,9,25,0.03,4,,193
2013-8-25,81,68,57,53,50,45,81,55,30,30.17,30.11,30.06,10,10,10,18,8,28,0.00,3,,169
2013-8-26,82,68,57,53,48,42,81,51,29,30.16,30.10,30.05,10,10,10,18,9,24,0.00,2,,168
2013-8-27,82,68,55,51,46,39,77,49,22,30.09,30.04,29.98,10,10,10,16,8,22,0.00,1,,174
2013-8-28,82,67,54,50,47,42,77,51,26,30.08,30.03,29.99,10,10,10,14,9,18,0.00,0,,219
2013-8-29,82,68,55,52,51,48,81,57,34,30.35,30.09,30.05,10,10,10,17,11,28,0.00,1,,260
2013-8-30,88,71,55,55,48,41,81,48,21,30.10,30.02,29.95,10,10,10,15,10,23,0.00,2,,263
2013-8-31,89,74,59,51,46,39,62,41,18,29.97,29.93,29.84,10,10,10,14,9,23,0.12,1,Rain,292